TimeEST,TemperatureF,Dew PointF,Humidity,Sea Level PressureIn,VisibilityMPH,Wind Direction,Wind SpeedMPH,Gust SpeedMPH,PrecipitationIn,Events,Conditions,WindDirDegrees,DateUTC
12:15 AM,38.8,32.0,76,30.06,10.0,Calm,Calm,-,N/A,,Drizzle,0,2013-02-03 05:15:00
12:35 AM,37.9,32.0,79,30.05,10.0,Calm,Calm,-,N/A,Rain,Light Rain,0,2013-02-03 05:35:00
12:55 AM,40.1,34.2,79,30.05,7.0,WSW,4.6,-,N/A,Rain,Rain,240,2013-02-03 05:55:00
1:15 AM,40.1,34.7,81,30.04,10.0,WSW,5.8,-,N/A,Rain,Light Rain,240,2013-02-03 06:15:00
1:35 AM,40.1,34.7,81,30.02,10.0,Calm,Calm,-,N/A,,Light Drizzle,0,2013-02-03 06:35:00
1:55 AM,40.1,34.7,81,30.00,10.0,Calm,Calm,-,N/A,,Overcast,0,2013-02-03 06:55:00
2:15 AM,40.1,34.7,81,29.98,10.0,Calm,Calm,-,N/A,,Overcast,0,2013-02-03 07:15:00
2:35 AM,40.1,34.7,81,29.98,10.0,Calm,Calm,-,N/A,,Overcast,0,2013-02-03 07:35:00
2:55 AM,40.1,34.7,81,29.97,10.0,Calm,Calm,-,N/A,,Overcast,0,2013-02-03 07:55:00
3:15 AM,40.1,34.7,81,29.97,10.0,WSW,5.8,-,N/A,,Overcast,250,2013-02-03 08:15:00
3:35 AM,40.1,34.7,81,29.96,10.0,WSW,5.8,-,N/A,,Overcast,240,2013-02-03 08:35:00
3:55 AM,40.5,35.1,81,29.95,10.0,WSW,5.8,-,N/A,,Overcast,250,2013-02-03 08:55:00
4:15 AM,40.6,35.2,81,29.95,10.0,WSW,4.6,-,N/A,,Overcast,250,2013-02-03 09:15:00
4:35 AM,41.4,36.0,81,29.94,10.0,West,4.6,-,N/A,,Overcast,270,2013-02-03 09:35:00
4:55 AM,40.8,35.4,81,29.94,10.0,West,3.5,-,N/A,,Overcast,260,2013-02-03 09:55:00
5:15 AM,40.1,34.7,81,29.94,10.0,West,3.5,-,N/A,,Overcast,260,2013-02-03 10:15:00
5:35 AM,40.1,34.7,81,29.93,10.0,Calm,Calm,-,N/A,,Scattered Clouds,0,2013-02-03 10:35:00
5:55 AM,40.1,34.7,81,29.93,10.0,Calm,Calm,-,N/A,,Scattered Clouds,0,2013-02-03 10:55:00
6:15 AM,37.8,32.4,81,29.94,10.0,Calm,Calm,-,N/A,,Scattered Clouds,0,2013-02-03 11:15:00
6:35 AM,37.6,32.2,81,29.93,7.0,Calm,Calm,-,N/A,,Scattered Clouds,0,2013-02-03 11:35:00
6:55 AM,37.6,32.2,81,29.94,10.0,Calm,Calm,-,N/A,,Mostly Cloudy,0,2013-02-03 11:55:00
7:15 AM,37.6,32.2,81,29.94,1.0,Calm,Calm,-,N/A,,Haze,0,2013-02-03 12:15:00
7:35 AM,37.6,32.2,81,29.95,4.0,Calm,Calm,-,N/A,,Haze,0,2013-02-03 12:35:00
7:55 AM,37.6,32.2,81,29.96,7.0,Calm,Calm,-,N/A,,Mostly Cloudy,0,2013-02-03 12:55:00
8:15 AM,37.6,32.2,81,29.95,10.0,Calm,Calm,-,N/A,,Overcast,0,2013-02-03 13:15:00
8:35 AM,40.1,34.7,81,29.95,10.0,Calm,Calm,-,N/A,,Mostly Cloudy,0,2013-02-03 13:35:00
9:15 AM,40.1,34.7,81,29.96,10.0,Calm,Calm,-,N/A,,Light Drizzle,0,2013-02-03 14:15:00
9:35 AM,40.5,35.1,81,29.97,10.0,WNW,4.6,-,N/A,Rain,Light Rain,290,2013-02-03 14:35:00
9:55 AM,40.6,34.9,80,29.97,10.0,West,5.8,-,N/A,,Light Drizzle,270,2013-02-03 14:55:00
10:15 AM,40.5,34.2,78,29.96,10.0,West,4.6,-,N/A,,Light Drizzle,280,2013-02-03 15:15:00
10:35 AM,42.4,36.0,78,29.96,10.0,WNW,5.8,-,N/A,,Mostly Cloudy,290,2013-02-03 15:35:00
10:55 AM,42.8,35.1,74,29.95,10.0,West,5.8,-,N/A,,Mostly Cloudy,280,2013-02-03 15:55:00
11:15 AM,42.8,34.5,73,29.95,10.0,WNW,3.5,-,N/A,,Mostly Cloudy,300,2013-02-03 16:15:00
11:35 AM,43.2,34.7,72,29.94,10.0,NW,8.1,-,N/A,,Mostly Cloudy,310,2013-02-03 16:35:00
11:55 AM,43.9,34.3,69,29.93,10.0,West,5.8,-,N/A,,Scattered Clouds,280,2013-02-03 16:55:00
12:15 PM,43.9,33.4,67,29.92,10.0,NW,6.9,-,N/A,,Mostly Cloudy,320,2013-02-03 17:15:00
12:35 PM,43.9,32.2,63,29.91,10.0,West,6.9,-,N/A,,Mostly Cloudy,270,2013-02-03 17:35:00
12:55 PM,43.9,32.9,65,29.90,10.0,West,8.1,-,N/A,,Light Drizzle,280,2013-02-03 17:55:00
1:15 PM,45.5,30.9,57,29.88,10.0,West,8.1,-,N/A,,Mostly Cloudy,280,2013-02-03 18:15:00
1:35 PM,46.0,31.5,57,29.88,10.0,WNW,8.1,-,N/A,,Scattered Clouds,290,2013-02-03 18:35:00
1:55 PM,47.5,29.5,50,29.87,10.0,West,8.1,-,N/A,,Clear,280,2013-02-03 18:55:00
2:15 PM,46.8,29.5,51,29.86,10.0,WNW,8.1,-,N/A,,Scattered Clouds,290,2013-02-03 19:15:00
2:35 PM,46.9,29.3,50,29.86,10.0,WNW,4.6,-,N/A,,Mostly Cloudy,290,2013-02-03 19:35:00
3:15 PM,48.6,24.3,39,29.86,10.0,West,6.9,-,N/A,,Clear,280,2013-02-03 20:15:00
3:35 PM,50.0,21.0,32,29.86,10.0,West,11.5,19.6,N/A,,Clear,260,2013-02-03 20:35:00
3:55 PM,46.9,19.2,33,29.87,10.0,WNW,8.1,-,N/A,,Scattered Clouds,290,2013-02-03 20:55:00
4:15 PM,50.2,20.1,31,29.88,10.0,West,5.8,-,N/A,,Scattered Clouds,280,2013-02-03 21:15:00
4:35 PM,49.5,17.4,28,29.88,10.0,West,11.5,-,N/A,,Scattered Clouds,270,2013-02-03 21:35:00
4:55 PM,48.0,15.6,27,29.88,10.0,West,5.8,-,N/A,,Clear,270,2013-02-03 21:55:00
5:15 PM,46.8,16.7,30,29.88,10.0,West,6.9,-,N/A,,Scattered Clouds,260,2013-02-03 22:15:00
5:35 PM,45.5,19.9,36,29.89,10.0,West,4.6,-,N/A,,Scattered Clouds,260,2013-02-03 22:35:00
5:55 PM,45.0,22.3,41,29.89,10.0,West,3.5,-,N/A,,Scattered Clouds,260,2013-02-03 22:55:00
6:15 PM,43.9,23.9,45,29.90,10.0,Calm,Calm,-,N/A,,Mostly Cloudy,0,2013-02-03 23:15:00
6:35 PM,43.9,25.7,49,29.91,10.0,Calm,Calm,-,N/A,,Mostly Cloudy,0,2013-02-03 23:35:00
6:55 PM,43.5,26.2,51,29.91,10.0,Calm,Calm,-,N/A,,Mostly Cloudy,0,2013-02-03 23:55:00
7:15 PM,43.9,25.9,49,29.92,10.0,Calm,Calm,-,N/A,,Overcast,0,2013-02-04 00:15:00
7:35 PM,43.7,26.8,51,29.92,10.0,Calm,Calm,-,N/A,,Mostly Cloudy,0,2013-02-04 00:35:00
7:55 PM,42.8,29.5,59,29.93,10.0,Calm,Calm,-,N/A,,Scattered Clouds,0,2013-02-04 00:55:00
8:15 PM,40.5,27.3,59,29.93,10.0,WSW,3.5,-,N/A,,Scattered Clouds,250,2013-02-04 01:15:00
8:35 PM,40.3,27.9,61,29.93,10.0,Calm,Calm,-,N/A,,Clear,0,2013-02-04 01:35:00
8:55 PM,39.9,29.3,66,29.95,10.0,NW,4.6,-,N/A,,Clear,320,2013-02-04 01:55:00
9:15 PM,40.5,28.2,62,29.95,10.0,Calm,Calm,-,N/A,,Clear,0,2013-02-04 02:15:00
9:35 PM,40.1,28.6,63,29.96,10.0,Calm,Calm,-,N/A,,Clear,0,2013-02-04 02:35:00
9:55 PM,39.4,29.3,67,29.97,10.0,Calm,Calm,-,N/A,,Clear,0,2013-02-04 02:55:00
10:15 PM,38.7,29.1,69,29.97,10.0,Calm,Calm,-,N/A,,Clear,0,2013-02-04 03:15:00
10:35 PM,37.6,29.5,73,29.98,10.0,Calm,Calm,-,N/A,,Clear,0,2013-02-04 03:35:00
10:55 PM,38.1,28.6,69,29.98,10.0,WNW,3.5,-,N/A,,Clear,290,2013-02-04 03:55:00
11:15 PM,39.7,29.5,67,29.98,10.0,Calm,Calm,-,N/A,,Clear,0,2013-02-04 04:15:00
11:35 PM,37.6,28.0,68,29.99,10.0,Calm,Calm,-,N/A,,Clear,0,2013-02-04 04:35:00
11:55 PM,37.6,28.0,68,29.99,10.0,Calm,Calm,-,N/A,,Clear,0,2013-02-04 04:55:00